Weather History for LGLR - July, 2013

Change the Weather History Date:

Sunday, July 21, 2013

  Actual Average Record
Temperature  
Mean Temperature 76 °F -  
Max Temperature 92 °F 90 °F - ()
Min Temperature 61 °F 63 °F - ()
Cooling Degree Days 12    
Growing Degree Days 26 (Base 50)    
Moisture  
Dew Point 56 °F    
Average Humidity 49    
Maximum Humidity 88    
Minimum Humidity 15    
Precipitation  
Precipitation 0.02 in 0.02 in - ()
Sea Level Pressure  
Sea Level Pressure 29.89 in    
Wind  
Wind Speed 1 mph ()    
Max Wind Speed 5 mph    
Max Gust Speed -    
Visibility 6.2 miles    
Events      
T = Trace of Precipitation, MM = Missing Value Source: Averaged Metar Reports

Daily Weather History Graph

Daily Weather History Graph

Search for Another Location

Airport or City:

Trip Planner

Search our weather history database for the weather conditions in past years. The results will help you decide how hot, cold, wet, or windy it might be!

Date:

Astronomy

Jul. 21, 2013 Rise Set
Actual Time 6:19 AM EEST 8:53 PM EEST
Civil Twilight 5:48 AM EEST 9:24 PM EEST
Nautical Twilight 5:10 AM EEST 10:02 PM EEST
Astronomical Twilight 4:26 AM EEST 10:45 PM EEST
Moon 7:35 PM EEST (7/21) 4:44 AM EEST (7/21)
Length of Visible Light 15h 35m
Length of Day
14h 33m
Waxing Gibbous, 97% of the Moon is Illuminated
Jul 21
Waxing Gibbous
Jul 22
Full
Jul 29
Last Quarter
Aug 7
New
Aug 14
First Quarter

Hourly Weather History & Observations

Time (EEST) Temp. Heat Index Dew Point Humidity Pressure Visibility Wind Dir Wind Speed Gust Speed Precip Events Conditions
12:50 AM 71.6 °F - 55.4 °F 57% 29.89 in 6.2 mi Calm Calm - N/A   Partly Cloudy
1:50 AM 69.8 °F - 55.4 °F 60% 29.89 in 6.2 mi Calm Calm - N/A   Partly Cloudy
3:00 AM 66 °F - 57 °F 65% 29.90 in 6 mi Calm Calm - -   Scattered Clouds
3:50 AM 64.4 °F - 57.2 °F 77% 29.89 in 6.2 mi Calm Calm - N/A   Partly Cloudy
4:50 AM 64.4 °F - 59.0 °F 83% 29.89 in 6.2 mi Calm Calm - N/A   Partly Cloudy
5:50 AM 64.4 °F - 59.0 °F 83% 29.89 in 6.2 mi Calm Calm - N/A   Partly Cloudy
6:20 AM 64.4 °F - 59.0 °F 83% 29.89 in 6.2 mi Calm Calm - N/A   Partly Cloudy
7:20 AM 64.4 °F - 60.8 °F 88% 29.92 in 6.2 mi Calm Calm - N/A   Partly Cloudy
8:50 AM 75.2 °F - 59.0 °F 57% 29.92 in 6.2 mi Calm Calm - N/A   Partly Cloudy
9:00 AM 74 °F - 59 °F 51% 29.92 in 6 mi Calm Calm - -   Scattered Clouds
9:50 AM 78.8 °F - 59.0 °F 51% 29.92 in 6.2 mi Calm Calm - N/A   Scattered Clouds
10:50 AM 80.6 °F 81.1 °F 59.0 °F 48% 29.92 in 6.2 mi East 4.6 mph - N/A   Scattered Clouds
11:50 AM 86.0 °F 84.9 °F 57.2 °F 37% 29.92 in 6.2 mi East 4.6 mph - N/A   Scattered Clouds
12:50 PM 87.8 °F 86.1 °F 55.4 °F 33% 29.92 in 6.2 mi NNE 4.6 mph - N/A   Mostly Cloudy
1:50 PM 91.4 °F 89.1 °F 53.6 °F 28% 29.89 in 6.2 mi North 4.6 mph - N/A   Scattered Clouds
2:50 PM 91.4 °F - 50.0 °F 24% 29.89 in 6.2 mi NNE 4.6 mph - N/A   Scattered Clouds
3:00 PM 92 °F - 51 °F 15% 29.87 in 6 mi NNE 4.6 mph - -   Scattered Clouds
3:50 PM 93.2 °F - 50.0 °F 23% 29.86 in 6.2 mi NW 4.6 mph - N/A   Mostly Cloudy
4:50 PM 87.8 °F 86.1 °F 55.4 °F 33% 29.86 in 6.2 mi North 4.6 mph - N/A   Mostly Cloudy
5:50 PM 87.8 °F 86.1 °F 55.4 °F 33% 29.86 in 6.2 mi NNE 4.6 mph - N/A   Mostly Cloudy
6:50 PM 87.8 °F 86.1 °F 55.4 °F 33% 29.86 in 6.2 mi Calm Calm - N/A   Mostly Cloudy
7:50 PM 86.0 °F 84.5 °F 55.4 °F 35% 29.86 in 6.2 mi Calm Calm - N/A   Scattered Clouds
8:50 PM 80.6 °F 80.8 °F 57.2 °F 45% 29.86 in 6.2 mi East 4.6 mph - N/A   Mostly Cloudy
9:00 PM 81 °F - 57 °F 34% 29.87 in 6 mi East 4.6 mph - -   Scattered Clouds
9:50 PM 77.0 °F - 57.2 °F 50% 29.89 in 6.2 mi Calm Calm - N/A   Mostly Cloudy
10:50 PM 77.0 °F - 57.2 °F 50% 29.89 in 6.2 mi Calm Calm - N/A   Mostly Cloudy
11:50 PM 75.2 °F - 57.2 °F 53% 29.89 in 6.2 mi ESE 4.6 mph - N/A   Mostly Cloudy